• Join FlightAware (Why Join?)
  • Login
  • US Flag GB Flag 
23:21 EST


 

Airport Tracker/Info


-or-


 

Live Flight TrackerFlight Track Log ✈ EJA922 ✈ 18-Aug-2013 ✈ KMKE - KSAW

Flight Track Log - Related Links

Times and Time Zones

All times are in EDT time to prevent confusion due to time zone crossing. See the EJA922 flight status page for this flight to view local times or setup timezone preferences in your user account.

Time Position Orientation Groundspeed Altitude Reporting Facility
EDT Latitude Longitude Course Direction KTS MPH feet Rate Location/Type
09:25 42.9500 -87.8833 40° Northeast 167 192 1,500  Level KMKE
09:26 43.0058 -87.8189 40° Northeast 249 287 6,600 4,071 Climbing Chicago Center
09:27 43.0783 -87.7956 13° North 285 328 11,000 3,339 Climbing Chicago Center
09:28 43.1694 -87.8047 356° North 333 383 13,500 2,390 Climbing Chicago Center
09:29 43.2739 -87.8075 359° North 371 427 15,900 2,195 Climbing Chicago Center
09:30 43.3989 -87.7900 North 387 445 18,000 1,984 Climbing Chicago Center
09:31 43.5100 -87.7758 North 400 460 20,000 1,902 Climbing Chicago Center
09:32 43.6222 -87.7625 North 405 466 21,900 1,463 Climbing Chicago Center
09:33 43.7358 -87.7467 North 410 472 23,000 532 Climbing Chicago Center
09:34 43.8608 -87.7314 North 444 511 23,000  Level Chicago Center
09:35 43.9875 -87.7164 North 456 525 23,000  Level Chicago Center
09:36 44.1369 -87.6981 North 462 532 23,000  Level Chicago Center
09:37 44.2644 -87.6803 North 461 531 23,000  Level Chicago Center
09:38 44.3925 -87.6628 North 463 533 23,000  Level Chicago Center
09:39 44.5172 -87.6458 North 463 533 23,000  Level Chicago Center
09:40 44.6450 -87.6289 North 461 531 23,000  Level Chicago Center
09:42 44.7986 -87.6078 North 462 532 23,000  Level Minneapolis Center
09:43 44.9275 -87.5911 North 463 533 23,000 -492 Level Minneapolis Center
09:44 45.0833 -87.5692 North 466 536 22,000 -1,220 Descending Minneapolis Center
09:45 45.2008 -87.5539 North 426 490 20,500 -1,422 Descending Minneapolis Center
09:46 45.3011 -87.5411 North 372 428 18,800 -1,600 Descending Minneapolis Center
09:47 45.4103 -87.5261 North 333 383 16,900 -1,756 Descending Minneapolis Center
09:48 45.4992 -87.5133 North 323 372 15,200 -1,721 Descending Minneapolis Center
09:49 45.5950 -87.5000 North 323 372 13,400 -1,756 Descending Minneapolis Center
09:50 45.6819 -87.4897 North 310 357 11,600 -1,707 Descending Minneapolis Center
09:51 45.7656 -87.4764 North 299 344 9,900 -1,721 Descending Minneapolis Center
09:52 45.8464 -87.4658 North 288 331 8,100 -1,707 Descending Minneapolis Center
09:53 45.9289 -87.4544 North 291 335 6,400 -1,610 Descending Minneapolis Center
09:54 46.0075 -87.4433 North 281 323 4,800 -1,122 Descending Minneapolis Center
09:55 46.0789 -87.4333 North 252 290 4,100 -585 Descending Minneapolis Center
09:56 46.1392 -87.4261 North 216 249 3,600 -246 Descending Minneapolis Center
09:57 46.1917 -87.4222 North 190 219 3,600 -244 Level Minneapolis Center
09:58 46.2411 -87.4175 North 177 204 3,100 -732 Descending Minneapolis Center
09:59 46.2914 -87.4092 North 168 193 2,100 -829 Descending Minneapolis Center
10:00 46.3261 -87.4017 North 138 159 1,400 -439 Descending Minneapolis Center
10:01 46.3681 -87.3914 10° North 139 160 1,200 -197 Descending Minneapolis Center